Location: ?ern� Novina
(50.6762°N, 14.8696°E)
Time: 14:00:18
(UTC+00:00)

Cosmos 2369 Rocket - Pass Details

Date: 03 March 2021
Orbit: 829 x 852 km, 71.0° (Epoch: 10 April)

Event Time Altitude Azimuth Distance (km) Brightness Sun altitude
Rises 21:28:45 0° 330° (NNW) 3,385 6.2 -40.8°
Reaches altitude 10° 21:31:11 10° 332° (NNW) 2,448 5.3 -41.0°
Enters shadow 21:32:52 20° 334° (NNW) 1,827 4.4 -41.2°
